AirNav   Pilot Hours Calculator
 
 374 users online  

PS24 Brownsville General Hospital Heliport
Brownsville, Pennsylvania, USA

GOING TO BROWNSVILLE?


FAA INFORMATION EFFECTIVE 26 MARCH 2020

Location

FAA Identifier: PS24
Lat/Long: 40-00-13.2680N 079-52-32.1660W
40-00.221133N 079-52.536100W
40.0036856,-79.8756017
(estimated)
Elevation: 1199 ft. / 365 m (estimated)
Variation: 09W (2000)
From city: 1 mile NW of BROWNSVILLE, PA
Time zone: UTC -4 (UTC -5 during Standard Time)
Zip code: 15417

Heliport Operations

Heliport use: Private use, MEDICAL USE.
Activation date: 11/1983
Control tower: no
ARTCC: CLEVELAND CENTER
FSS: ALTOONA FLIGHT SERVICE STATION
NOTAMs facility: FDC (NOTAM-D service not available)
Attendance: CONTINUOUS
Wind indicator: yes
Segmented circle: no

Heliport Communications

CLARKSBURG APPROACH: 126.95
CLARKSBURG DEPARTURE: 126.95
WX AWOS-3 at VVS (10 nm E): 133.325 (724-626-8745)
WX AWOS-3 at FWQ (13 nm N): 118.475 (724-379-5815)
  • APCH/DEP SVC PRVDD BY NORTH CENTRAL WEST VIRGINIA ATCT (CKB) 126.950/239.300.

Nearby radio navigation aids

VOR radial/distance  VOR name  Freq  Var
AGCr164/18.2ALLEGHENY VOR/DME110.0009W
IHDr280/23.8INDIAN HEAD VORTAC108.2006W
MGWr004/26.8MORGANTOWN VOR/DME111.6005W
HLGr123/35.3WHEELING VOR/DME112.2007W

 
NDB name  Hdg/Dist  Freq  Var  ID
CAMOR328/9.429908WVV ...- ...-

Heliport Services

Runway Information

Helipad H1

Dimensions: 50 x 30 ft. / 15 x 9 m
Surface: asphalt, in fair condition
Latitude: 40-00.221133N
Longitude: 079-52.536100W
Elevation: 1199.0 ft.
Traffic pattern: leftleft
Markings: none, in fair condition

Heliport Ownership and Management from official FAA records

Ownership: Privately-owned
Owner: BROWNSVILLE GENERAL HOSPITAL
125 SIMPSON ROAD
BROWNSVILLE, PA 15414
Phone 412-785-7200
Manager: DON WILSON
125 SIMPSON ROAD
BROWNSVILLE, PA 15414
Phone 412-785-7200

Additional Remarks

A52-H1 15' STREET LIGHT 60' WEST; 35' UTILITY POLES 250' N & 290' WEST; 25' BLDG 171' SOUTH.
FOR CD CTC CLARKSBURG APCH AT 304-842-6676, WHEN APCH CLSD CTC CLEVELAND ARTCC AT 440-774-0226.

Instrument Procedures

There are no published instrument procedures at PS24.

Some nearby airports with instrument procedures:

KVVS - Joseph A Hardy Connellsville Airport (10 nm E)
KFWQ - Rostraver Airport (13 nm N)
KWAY - Greene County Airport (13 nm SW)
G05 - Finleyville Airpark (16 nm NW)
KAFJ - Washington County Airport (21 nm NW)
 
Loc | Ops | Rwys | IFR | FBO | Links
Com | Nav | Svcs | Stats | Notes
Area around PS24 (Brownsville General Hospital Heliport)
 
Road maps at: MapQuest Bing Google
 
Aerial photo
No photo
 
Sectional chart

 
Airport distance calculator
Flying to Brownsville General Hospital Heliport? Find the distance to fly.

From to PS24

Sunrise and sunset
Times for 06-Apr-2020
 Local
(UTC-4)
 Zulu
(UTC)
Morning civil twilight06:2710:27
Sunrise06:5510:55
Sunset19:4823:48
Evening civil twilight20:1600:16

Current date and time
Zulu (UTC)  06-Apr-2020 10:49:48
Local (UTC-4)  06-Apr-2020 06:49:48
 
METAR
KP53 
13nm N 
060956Z AUTO 19004KT 02/M04 A3009 RMK AO1 SLP197 T00171044
KAFJ 
19nm W 
060956Z AUTO 01003KT 10SM FEW075 02/01 A3014 RMK AO2 SLP210 T00220011 PWINO FZRANO
KAGC 
21nm N 
060953Z 35004KT 10SM CLR 02/01 A3010 RMK AO2 SLP202 T00220011
KMGW 
21nm S 
060953Z AUTO 01005KT 10SM OVC016 08/04 A3010 RMK AO2 SLP194 T00780039
TAF
KAGC 
21nm N 
060539Z 0606/0706 35004KT P6SM SCT100 FM061500 05003KT P6SM SCT250 FM070000 20004KT P6SM BKN100
KMGW 
21nm S 
060859Z 0609/0706 36005KT P6SM BKN015 FM061200 VRB03KT P6SM BKN035 FM062000 29004KT P6SM BKN250 FM070300 17004KT P6SM OVC050
NOTAMs
Click for the latest NOTAMs
NOTAMs are issued by the DoD/FAA and will open in a separate window not controlled by AirNav.

 

 
 

Would you like to see your business listed on this page?

 If your business provides an interesting product or service to pilots, flight crews, aircraft, or users of the Brownsville General Hospital Heliport, you should consider listing it here.  To start the listing process, click on the button below
 
Add a business
 

Other Pages about Brownsville General Hospital Heliport

Update a link
 
Copyright © AirNav, LLC. All rights reserved. Privacy Policy  Contact